TimeMDT,TemperatureF,Dew PointF,Humidity,Sea Level PressureIn,VisibilityMPH,Wind Direction,Wind SpeedMPH,Gust SpeedMPH,PrecipitationIn,Events,Conditions,WindDirDegrees,DateUTC
12:53 AM,33.1,21.0,61,29.93,10.0,WSW,4.6,-,N/A,,Mostly Cloudy,250,2014-04-11 06:53:00
1:53 AM,30.9,19.9,64,29.94,10.0,WNW,4.6,-,N/A,,Mostly Cloudy,290,2014-04-11 07:53:00
2:53 AM,32.0,21.0,64,29.94,10.0,SW,4.6,-,N/A,,Mostly Cloudy,230,2014-04-11 08:53:00
3:53 AM,28.0,19.9,72,29.96,10.0,West,4.6,-,N/A,,Partly Cloudy,260,2014-04-11 09:53:00
4:53 AM,28.0,19.9,72,29.94,10.0,SW,4.6,-,N/A,,Clear,220,2014-04-11 10:53:00
5:53 AM,26.1,19.0,75,29.95,10.0,Calm,Calm,-,N/A,,Clear,0,2014-04-11 11:53:00
6:53 AM,26.1,19.0,75,29.95,10.0,NE,4.6,-,N/A,,Clear,40,2014-04-11 12:53:00
7:53 AM,34.0,25.0,70,29.95,10.0,East,3.5,-,N/A,,Clear,100,2014-04-11 13:53:00
8:53 AM,42.1,26.1,53,29.93,10.0,East,3.5,-,N/A,,Clear,80,2014-04-11 14:53:00
9:53 AM,46.9,26.1,44,29.91,10.0,East,4.6,-,N/A,,Scattered Clouds,80,2014-04-11 15:53:00
10:53 AM,53.1,21.9,30,29.88,10.0,SE,6.9,-,N/A,,Overcast,140,2014-04-11 16:53:00
11:53 AM,55.9,19.9,25,29.85,10.0,SE,10.4,-,N/A,,Overcast,130,2014-04-11 17:53:00
12:53 PM,57.0,19.9,24,29.82,10.0,SE,11.5,-,N/A,,Overcast,140,2014-04-11 18:53:00
1:53 PM,60.1,19.0,20,29.78,10.0,SSE,11.5,24.2,N/A,,Overcast,150,2014-04-11 19:53:00
2:19 PM,60.1,24.1,25,29.75,10.0,WSW,17.3,25.3,N/A,,Overcast,250,2014-04-11 20:19:00
2:53 PM,55.9,30.0,37,29.79,10.0,WNW,10.4,-,0.00,Rain,Light Rain,300,2014-04-11 20:53:00
3:53 PM,57.0,30.0,36,29.77,10.0,SW,3.5,-,0.00,,Overcast,220,2014-04-11 21:53:00
4:53 PM,57.0,30.9,37,29.76,10.0,NE,11.5,-,N/A,,Overcast,50,2014-04-11 22:53:00
5:53 PM,59.0,30.9,35,29.75,10.0,NE,6.9,-,N/A,,Overcast,50,2014-04-11 23:53:00
6:53 PM,55.9,32.0,40,29.74,10.0,East,12.7,-,N/A,,Overcast,80,2014-04-12 00:53:00
7:53 PM,48.0,30.9,52,29.73,10.0,ENE,8.1,-,N/A,,Clear,70,2014-04-12 01:53:00
8:53 PM,45.0,30.9,58,29.73,10.0,ENE,8.1,-,N/A,,Mostly Cloudy,60,2014-04-12 02:53:00
9:53 PM,39.9,30.0,68,29.73,10.0,NE,6.9,-,N/A,,Partly Cloudy,50,2014-04-12 03:53:00
10:53 PM,33.1,27.0,78,29.72,10.0,North,5.8,-,N/A,,Clear,360,2014-04-12 04:53:00
11:53 PM,34.0,28.0,79,29.71,10.0,Calm,Calm,-,N/A,,Scattered Clouds,0,2014-04-12 05:53:00